FLOCK 2K-27

Last updated on Wed Feb 14 2018 16:20:53 GMT+0000 (Coordinated Universal Time)

1 42882U 17042BK 18044.77920916 .00001307 00000-0 40188-4 0 9992 2 42882 96.9929 307.6567 0012546 181.6830 178.4375 15.35301091 32692

Satellite not in orbit

FLOCK 2K-27